When you browse on this site, cookies collect data to enhance your experience and personalize the content and advertising you see.
Visit our Privacy Policy to learn more. By continuing to use the site, you agree to this use of cookies and data.
  • Em Portugal
  • Lista de países
  • Para 7 dias
  • Temperatura da água
  • Mapas de satélite
  • Mapa do tempo
  • Widgets de tempo
  • user-avatar
    Iniciar Sessão

    Previsão horária em Innsbruck

    Hoje, 16 Dezembro, Domingo

    Tempo Temperatura Precipitação Vento Pressão Humidade
    00:00 -13°C° 0 mm 1 m/s 589 mmHg 56%
    01:00 -14°C° 0 mm 2 m/s 589 mmHg 52%
    02:00 -13°C° 0 mm 2 m/s 589 mmHg 53%
    03:00 -12°C° 0 mm 2 m/s 589 mmHg 55%
    04:00 -12°C° 0 mm 2 m/s 590 mmHg 57%
    05:00 -10°C° 0.2 mm 2 m/s 590 mmHg 63%
    06:00 -10°C° 0.2 mm 2 m/s 590 mmHg 68%
    07:00 -9°C° 0.2 mm 2 m/s 590 mmHg 74%
    08:00 -8°C° 0.3 mm 2 m/s 590 mmHg 76%
    09:00 -7°C° 0.3 mm 2 m/s 590 mmHg 77%
    10:00 -6°C° 0.3 mm 2 m/s 591 mmHg 79%
    11:00 -4°C° 0.2 mm 1 m/s 591 mmHg 80%
    12:00 -3°C° 0.2 mm 1 m/s 591 mmHg 81%
    13:00 -2°C° 0.2 mm 1 m/s 591 mmHg 81%
    14:00 -3°C° 0.2 mm 1 m/s 591 mmHg 83%
    15:00 -3°C° 0.2 mm 1 m/s 591 mmHg 86%
    16:00 -4°C° 0.2 mm 1 m/s 591 mmHg 88%
    17:00 -4°C° 0.3 mm 1 m/s 591 mmHg 89%
    18:00 -4°C° 0.3 mm 1 m/s 591 mmHg 90%
    19:00 -6°C° 0.3 mm 0 m/s 591 mmHg 91%
    20:00 -6°C° 0.4 mm 1 m/s 591 mmHg 92%
    21:00 -6°C° 0.4 mm 1 m/s 591 mmHg 92%
    22:00 -6°C° 0.4 mm 1 m/s 592 mmHg 93%
    23:00 -6°C° 0.2 mm 1 m/s 591 mmHg 93%

    Amanhã, 17 Dezembro, Segunda-feira

    Tempo Temperatura Precipitação Vento Pressão Humidade
    00:00 -7°C° 0.2 mm 1 m/s 591 mmHg 93%
    01:00 -7°C° 0.2 mm 1 m/s 591 mmHg 93%
    02:00 -7°C° 0 mm 1 m/s 591 mmHg 92%
    03:00 -7°C° 0 mm 1 m/s 591 mmHg 92%
    04:00 -8°C° 0 mm 1 m/s 591 mmHg 92%
    05:00 -8°C° 0 mm 1 m/s 591 mmHg 91%
    06:00 -8°C° 0 mm 1 m/s 591 mmHg 91%
    07:00 -9°C° 0 mm 1 m/s 591 mmHg 91%
    08:00 -8°C° 0 mm 1 m/s 592 mmHg 90%
    09:00 -7°C° 0 mm 1 m/s 593 mmHg 89%
    10:00 -8°C° 0 mm 2 m/s 593 mmHg 87%
    11:00 -7°C° 0 mm 2 m/s 594 mmHg 86%
    12:00 -6°C° 0 mm 2 m/s 594 mmHg 84%
    13:00 -5°C° 0 mm 2 m/s 595 mmHg 82%
    14:00 -6°C° 0 mm 2 m/s 595 mmHg 84%
    15:00 -7°C° 0 mm 2 m/s 595 mmHg 87%
    16:00 -8°C° 0 mm 2 m/s 595 mmHg 89%
    17:00 -9°C° 0 mm 2 m/s 595 mmHg 88%
    18:00 -9°C° 0 mm 2 m/s 595 mmHg 87%
    19:00 -10°C° 0 mm 2 m/s 596 mmHg 86%
    20:00 -10°C° 0 mm 2 m/s 596 mmHg 86%
    21:00 -10°C° 0 mm 2 m/s 596 mmHg 86%
    22:00 -12°C° 0 mm 2 m/s 597 mmHg 85%
    23:00 -12°C° 0 mm 2 m/s 596 mmHg 86%

    Depois de amanhã, 18 Dezembro, Terça-feira

    Tempo Temperatura Precipitação Vento Pressão Humidade
    00:00 -10°C° 0 mm 1 m/s 596 mmHg 87%
    01:00 -11°C° 0 mm 1 m/s 596 mmHg 87%
    02:00 -11°C° 0 mm 1 m/s 596 mmHg 85%
    03:00 -13°C° 0 mm 2 m/s 596 mmHg 83%
    04:00 -13°C° 0 mm 2 m/s 596 mmHg 81%
    05:00 -11°C° 0 mm 1 m/s 596 mmHg 76%
    06:00 -11°C° 0 mm 1 m/s 596 mmHg 71%
    07:00 -11°C° 0 mm 1 m/s 596 mmHg 66%
    08:00 -10°C° 0 mm 1 m/s 596 mmHg 65%
    09:00 -9°C° 0 mm 2 m/s 597 mmHg 64%
    10:00 -8°C° 0 mm 2 m/s 598 mmHg 64%
    11:00 -6°C° 0 mm 2 m/s 598 mmHg 66%
    12:00 -5°C° 0 mm 2 m/s 598 mmHg 67%
    13:00 -3°C° 0 mm 2 m/s 598 mmHg 69%
    14:00 -5°C° 0 mm 2 m/s 597 mmHg 70%
    15:00 -6°C° 0 mm 2 m/s 597 mmHg 70%
    16:00 -7°C° 0 mm 2 m/s 596 mmHg 70%
    17:00 -8°C° 0 mm 2 m/s 595 mmHg 67%
    18:00 -9°C° 0 mm 2 m/s 595 mmHg 64%
    19:00 -10°C° 0 mm 2 m/s 595 mmHg 61%
    20:00 -10°C° 0 mm 2 m/s 594 mmHg 59%
    21:00 -10°C° 0 mm 2 m/s 594 mmHg 58%
    22:00 -10°C° 0 mm 2 m/s 594 mmHg 56%
    23:00 -9°C° 0 mm 2 m/s 594 mmHg 54%

    19 Dezembro, Quarta-feira

    Tempo Temperatura Precipitação Vento Pressão Humidade
    00:00 -9°C° 0 mm 2 m/s 594 mmHg 53%
    01:00 -9°C° 0 mm 2 m/s 594 mmHg 52%
    02:00 -9°C° 0 mm 2 m/s 593 mmHg 51%
    03:00 -9°C° 0 mm 2 m/s 593 mmHg 50%
    04:00 -9°C° 0 mm 2 m/s 593 mmHg 49%
    05:00 -8°C° 0 mm 2 m/s 593 mmHg 49%
    06:00 -8°C° 0 mm 2 m/s 593 mmHg 49%
    07:00 -7°C° 0 mm 2 m/s 593 mmHg 49%
    08:00 -7°C° 0 mm 2 m/s 594 mmHg 52%
    09:00 -6°C° 0 mm 2 m/s 594 mmHg 55%
    10:00 -3°C° 0 mm 1 m/s 595 mmHg 58%
    11:00 -2°C° 0 mm 1 m/s 595 mmHg 61%
    12:00 -1°C° 0 mm 1 m/s 595 mmHg 64%
    13:00 0°C° 0 mm 1 m/s 595 mmHg 67%
    14:00 -2°C° 0 mm 1 m/s 594 mmHg 68%
    15:00 -5°C° 0 mm 2 m/s 593 mmHg 69%
    16:00 -6°C° 0 mm 2 m/s 592 mmHg 70%
    17:00 -7°C° 0 mm 2 m/s 592 mmHg 71%
    18:00 -8°C° 0 mm 2 m/s 592 mmHg 72%
    19:00 -10°C° 0 mm 3 m/s 591 mmHg 73%
    20:00 -10°C° 0 mm 3 m/s 591 mmHg 75%
    21:00 -9°C° 0 mm 3 m/s 592 mmHg 77%
    22:00 -9°C° 0 mm 3 m/s 592 mmHg 80%
    23:00 -8°C° 0 mm 2 m/s 592 mmHg 82%

    20 Dezembro, Quinta-feira

    Tempo Temperatura Precipitação Vento Pressão Humidade
    00:00 -8°C° 0 mm 2 m/s 592 mmHg 84%
    01:00 -9°C° 0 mm 2 m/s 592 mmHg 86%
    02:00 -8°C° 0.3 mm 2 m/s 592 mmHg 88%
    03:00 -7°C° 0.3 mm 1 m/s 592 mmHg 90%
    04:00 -7°C° 0.3 mm 1 m/s 592 mmHg 92%
    05:00 -7°C° 0.5 mm 1 m/s 592 mmHg 93%
    06:00 -6°C° 0.5 mm 1 m/s 593 mmHg 93%
    07:00 -6°C° 0.5 mm 1 m/s 593 mmHg 94%
    08:00 -6°C° 0.6 mm 1 m/s 593 mmHg 93%
    09:00 -6°C° 0.6 mm 1 m/s 594 mmHg 93%
    10:00 -4°C° 0.6 mm 1 m/s 594 mmHg 93%
    11:00 -4°C° 0.4 mm 1 m/s 594 mmHg 93%
    12:00 -3°C° 0.4 mm 1 m/s 594 mmHg 92%
    13:00 -3°C° 0.4 mm 1 m/s 595 mmHg 92%
    14:00 -3°C° 0.2 mm 1 m/s 595 mmHg 93%
    15:00 -3°C° 0.2 mm 1 m/s 595 mmHg 93%
    16:00 -4°C° 0.2 mm 1 m/s 595 mmHg 94%
    17:00 -4°C° 0.1 mm 1 m/s 595 mmHg 94%
    18:00 -6°C° 0.1 mm 1 m/s 595 mmHg 94%
    19:00 -8°C° 0.1 mm 2 m/s 595 mmHg 95%
    20:00 -7°C° 0.1 mm 1 m/s 595 mmHg 94%
    21:00 -8°C° 0.1 mm 1 m/s 595 mmHg 94%
    22:00 -8°C° 0.1 mm 1 m/s 595 mmHg 94%
    23:00 -9°C° 0 mm 1 m/s 595 mmHg 93%

    21 Dezembro, Sexta-feira

    Tempo Temperatura Precipitação Vento Pressão Humidade
    00:00 -9°C° 0 mm 1 m/s 595 mmHg 92%
    01:00 -9°C° 0 mm 1 m/s 595 mmHg 91%
    02:00 -10°C° 0 mm 1 m/s 595 mmHg 90%
    03:00 -10°C° 0 mm 1 m/s 594 mmHg 89%
    04:00 -11°C° 0 mm 1 m/s 594 mmHg 87%
    05:00 -11°C° 0 mm 1 m/s 594 mmHg 84%
    06:00 -11°C° 0 mm 1 m/s 594 mmHg 82%
    07:00 -11°C° 0 mm 1 m/s 594 mmHg 79%
    08:00 -10°C° 0 mm 1 m/s 595 mmHg 76%
    09:00 -8°C° 0 mm 1 m/s 595 mmHg 74%
    10:00 -7°C° 0 mm 1 m/s 596 mmHg 71%
    11:00 -6°C° 0 mm 2 m/s 596 mmHg 72%
    12:00 -5°C° 0 mm 2 m/s 596 mmHg 72%
    13:00 -4°C° 0 mm 2 m/s 596 mmHg 73%
    14:00 -4°C° 0 mm 2 m/s 596 mmHg 74%
    15:00 -5°C° 0 mm 2 m/s 595 mmHg 75%
    16:00 -5°C° 0 mm 2 m/s 595 mmHg 76%
    17:00 -5°C° 0.2 mm 2 m/s 595 mmHg 77%
    18:00 -5°C° 0.2 mm 2 m/s 595 mmHg 78%
    19:00 -5°C° 0.2 mm 2 m/s 595 mmHg 79%
    20:00 -5°C° 0.6 mm 2 m/s 595 mmHg 81%
    21:00 -5°C° 0.6 mm 2 m/s 596 mmHg 83%
    22:00 -5°C° 0.6 mm 2 m/s 596 mmHg 85%
    23:00 -4°C° 0.2 mm 2 m/s 596 mmHg 86%
    Mostrar mais